カタログに戻る

YAOGAN-30 T

運用中軍事VLEO
NORAD 45462·PAYLOAD·🇨🇳 China

打ち上げ Mar 24, 2020 から Xichang Satellite Launch Center

Loading…

次のパス (今後24時間)

TLE

最新Source: Space-Track

元期: Sep 14, 2026, 14:31 UTC

1 45462U 20021C   26257.60504307  .00002194  00000-0  16184-3 0  9992
2 45462  34.9967  23.4004 0000447  68.5716 291.5040 15.03025262353875

AllMySatでYAOGAN-30 Tをリアルタイム追跡

Download on the App Store